TimeEDT,TemperatureF,Dew PointF,Humidity,Sea Level PressureIn,VisibilityMPH,Wind Direction,Wind SpeedMPH,Gust SpeedMPH,PrecipitationIn,Events,Conditions,WindDirDegrees,DateUTC
12:09 AM,69.8,69.8,100,29.89,10.0,ENE,1.2,-,N/A,,Clear,70,2013-08-28 04:09:00
12:43 AM,68.0,68.0,100,29.89,2.5,NE,3.5,-,N/A,,Clear,40,2013-08-28 04:43:00
12:44 AM,68.0,68.0,100,29.89,2.0,NE,3.5,-,N/A,,Clear,50,2013-08-28 04:44:00
12:45 AM,68.0,68.0,100,29.89,1.8,NE,3.5,-,N/A,,Clear,50,2013-08-28 04:45:00
12:47 AM,68.0,68.0,100,29.89,1.5,NE,3.5,-,N/A,,Clear,50,2013-08-28 04:47:00
12:50 AM,68.0,68.0,100,29.89,1.5,NE,3.5,-,N/A,Rain,Light Rain,50,2013-08-28 04:50:00
12:51 AM,68.0,68.0,100,29.89,1.8,ENE,3.5,-,N/A,,Light Drizzle,60,2013-08-28 04:51:00
12:52 AM,68.0,68.0,100,29.89,2.0,ENE,3.5,-,N/A,,Light Drizzle,60,2013-08-28 04:52:00
12:53 AM,68.0,68.0,100,29.89,2.5,ENE,3.5,-,N/A,,Light Drizzle,60,2013-08-28 04:53:00
12:54 AM,68.0,68.0,100,29.89,3.0,ENE,3.5,-,N/A,,Light Drizzle,60,2013-08-28 04:54:00
12:58 AM,68.7,68.4,99,29.91,6.0,NE,2.3,-,0.00,,Light Drizzle,50,2013-08-28 04:58:00
1:01 AM,68.0,68.0,100,29.88,8.0,ENE,3.5,-,N/A,,Clear,60,2013-08-28 05:01:00
1:42 AM,66.2,66.2,100,29.87,2.0,NE,2.3,-,N/A,,Clear,40,2013-08-28 05:42:00
1:43 AM,66.2,66.2,100,29.87,1.2,NE,2.3,-,N/A,,Clear,40,2013-08-28 05:43:00
1:44 AM,66.2,66.2,100,29.88,1.0,NE,2.3,-,N/A,,Clear,50,2013-08-28 05:44:00
1:45 AM,66.2,66.2,100,29.88,0.8,NE,2.3,-,N/A,,Clear,50,2013-08-28 05:45:00
1:46 AM,66.2,66.2,100,29.87,0.5,NE,2.3,-,N/A,Fog,Fog,50,2013-08-28 05:46:00
1:47 AM,66.2,66.2,100,29.87,0.5,NE,2.3,-,N/A,Fog,Fog,50,2013-08-28 05:47:00
1:49 AM,66.2,66.2,100,29.87,0.5,Calm,Calm,-,N/A,Fog,Fog,0,2013-08-28 05:49:00
1:50 AM,66.2,66.2,100,29.87,0.5,North,1.2,-,N/A,Fog,Fog,360,2013-08-28 05:50:00
1:51 AM,68.0,66.2,94,29.87,0.2,North,1.2,-,N/A,Fog,Fog,360,2013-08-28 05:51:00
1:54 AM,68.0,66.2,94,29.87,0.5,North,1.2,-,N/A,Fog,Fog,350,2013-08-28 05:54:00
1:55 AM,68.0,66.2,94,29.87,0.5,Calm,Calm,-,N/A,Fog,Fog,0,2013-08-28 05:55:00
1:56 AM,68.0,66.2,94,29.87,0.5,Calm,Calm,-,N/A,Fog,Fog,0,2013-08-28 05:56:00
1:58 AM,68.0,66.2,94,29.88,0.5,Calm,Calm,-,0.00,Fog,Fog,0,2013-08-28 05:58:00
1:59 AM,68.0,66.2,94,29.87,0.8,Calm,Calm,-,N/A,,Clear,0,2013-08-28 05:59:00
2:00 AM,66.2,66.2,100,29.87,0.8,North,1.2,-,N/A,,Clear,350,2013-08-28 06:00:00
2:01 AM,66.2,66.2,100,29.87,1.0,North,1.2,-,N/A,,Clear,350,2013-08-28 06:01:00
2:02 AM,66.2,66.2,100,29.87,1.0,North,1.2,-,N/A,,Clear,360,2013-08-28 06:02:00
2:03 AM,66.2,66.2,100,29.87,1.5,North,1.2,-,N/A,,Clear,360,2013-08-28 06:03:00
2:04 AM,66.2,66.2,100,29.87,2.5,North,1.2,-,N/A,,Clear,360,2013-08-28 06:04:00
2:05 AM,66.2,66.2,100,29.87,4.0,North,1.2,-,N/A,,Clear,10,2013-08-28 06:05:00
2:08 AM,66.2,66.2,100,29.87,1.5,North,1.2,-,N/A,,Clear,10,2013-08-28 06:08:00
2:09 AM,66.2,66.2,100,29.87,0.8,NNE,1.2,-,N/A,,Clear,20,2013-08-28 06:09:00
2:10 AM,66.2,66.2,100,29.87,0.5,NNE,1.2,-,N/A,Fog,Light Drizzle,20,2013-08-28 06:10:00
2:11 AM,66.2,66.2,100,29.87,0.5,NNE,2.3,-,N/A,Fog,Light Drizzle,20,2013-08-28 06:11:00
2:12 AM,66.2,66.2,100,29.87,0.5,NNE,2.3,-,N/A,Fog,Light Drizzle,20,2013-08-28 06:12:00
2:13 AM,66.2,66.2,100,29.87,0.5,NNE,1.2,-,N/A,Fog,Light Drizzle,30,2013-08-28 06:13:00
2:15 AM,66.2,66.2,100,29.87,0.2,NE,1.2,-,N/A,Fog,Light Drizzle,40,2013-08-28 06:15:00
2:16 AM,66.2,66.2,100,29.87,0.2,NE,1.2,-,N/A,Fog,Light Drizzle,40,2013-08-28 06:16:00
2:23 AM,66.2,64.4,94,29.87,0.2,Calm,Calm,-,N/A,Fog,Light Drizzle,0,2013-08-28 06:23:00
2:24 AM,66.2,64.4,94,29.87,0.2,Calm,Calm,-,N/A,Fog,Fog,0,2013-08-28 06:24:00
2:25 AM,66.2,66.2,100,29.87,0.2,Calm,Calm,-,N/A,Fog,Fog,0,2013-08-28 06:25:00
2:29 AM,66.2,66.2,100,29.87,0.2,Calm,Calm,-,N/A,Fog,Fog,0,2013-08-28 06:29:00
2:31 AM,66.2,66.2,100,29.87,0.2,Calm,Calm,-,N/A,Fog,Fog,0,2013-08-28 06:31:00
2:32 AM,66.2,66.2,100,29.87,0.2,Calm,Calm,-,N/A,Fog,Fog,0,2013-08-28 06:32:00
2:34 AM,66.2,66.2,100,29.87,0.5,Calm,Calm,-,N/A,Fog,Fog,0,2013-08-28 06:34:00
2:35 AM,66.2,66.2,100,29.87,0.5,Calm,Calm,-,N/A,Fog,Fog,0,2013-08-28 06:35:00
2:36 AM,66.2,66.2,100,29.87,0.8,Calm,Calm,-,N/A,,Clear,0,2013-08-28 06:36:00
2:37 AM,66.2,66.2,100,29.87,1.0,Calm,Calm,-,N/A,,Clear,0,2013-08-28 06:37:00
2:40 AM,66.2,66.2,100,29.87,0.8,Calm,Calm,-,N/A,,Clear,0,2013-08-28 06:40:00
2:41 AM,66.2,66.2,100,29.87,0.8,Calm,Calm,-,N/A,,Clear,0,2013-08-28 06:41:00
2:42 AM,66.2,66.2,100,29.87,0.5,Calm,Calm,-,N/A,Fog,Fog,0,2013-08-28 06:42:00
2:43 AM,66.2,66.2,100,29.87,0.5,Calm,Calm,-,N/A,Fog,Fog,0,2013-08-28 06:43:00
2:45 AM,66.2,66.2,100,29.87,0.5,Calm,Calm,-,N/A,Fog,Fog,0,2013-08-28 06:45:00
2:46 AM,66.2,66.2,100,29.87,0.5,Calm,Calm,-,N/A,Fog,Fog,0,2013-08-28 06:46:00
2:52 AM,66.2,66.2,100,29.87,0.5,WNW,1.2,-,N/A,Fog,Fog,300,2013-08-28 06:52:00
2:53 AM,66.2,66.2,100,29.87,0.5,WNW,1.2,-,N/A,Fog,Fog,300,2013-08-28 06:53:00
2:56 AM,66.2,66.2,100,29.87,0.8,Calm,Calm,-,N/A,,Mist,0,2013-08-28 06:56:00
2:57 AM,66.2,66.2,100,29.87,0.8,Calm,Calm,-,N/A,,Mist,0,2013-08-28 06:57:00
2:58 AM,66.6,66.4,99,29.88,1.0,Calm,Calm,-,0.00,,Mist,0,2013-08-28 06:58:00
2:59 AM,66.2,66.2,100,29.87,1.5,Calm,Calm,-,N/A,,Partly Cloudy,0,2013-08-28 06:59:00
3:00 AM,66.2,66.2,100,29.87,2.0,Calm,Calm,-,N/A,,Partly Cloudy,0,2013-08-28 07:00:00
3:01 AM,66.2,66.2,100,29.87,4.0,Calm,Calm,-,N/A,,Partly Cloudy,0,2013-08-28 07:01:00
3:04 AM,66.2,66.2,100,29.87,2.5,Calm,Calm,-,N/A,,Partly Cloudy,0,2013-08-28 07:04:00
3:05 AM,66.2,66.2,100,29.87,1.8,Calm,Calm,-,N/A,,Partly Cloudy,0,2013-08-28 07:05:00
3:06 AM,66.2,66.2,100,29.87,1.2,Variable,1.2,-,N/A,,Partly Cloudy,0,2013-08-28 07:06:00
3:07 AM,66.2,66.2,100,29.87,1.0,NE,1.2,-,N/A,,Mist,50,2013-08-28 07:07:00
3:08 AM,66.2,66.2,100,29.87,0.8,ENE,1.2,-,N/A,,Mist,60,2013-08-28 07:08:00
3:09 AM,66.2,66.2,100,29.87,0.8,ENE,1.2,-,N/A,,Mist,60,2013-08-28 07:09:00
3:10 AM,66.2,66.2,100,29.87,0.8,NE,1.2,-,N/A,,Mist,50,2013-08-28 07:10:00
3:11 AM,66.2,66.2,100,29.87,0.5,NE,1.2,-,N/A,Fog,Fog,40,2013-08-28 07:11:00
3:13 AM,64.4,64.4,100,29.87,0.5,NE,1.2,-,N/A,Fog,Fog,40,2013-08-28 07:13:00
3:14 AM,64.4,64.4,100,29.87,0.5,NNE,1.2,-,N/A,Fog,Fog,30,2013-08-28 07:14:00
3:20 AM,64.4,64.4,100,29.87,0.5,ENE,2.3,-,N/A,Fog,Fog,60,2013-08-28 07:20:00
3:21 AM,64.4,64.4,100,29.87,0.2,ENE,2.3,-,N/A,Fog,Fog,70,2013-08-28 07:21:00
3:28 AM,66.2,66.2,100,29.87,0.2,ENE,2.3,-,N/A,Fog,Fog,70,2013-08-28 07:28:00
3:29 AM,66.2,66.2,100,29.87,0.5,ENE,2.3,-,N/A,Fog,Fog,60,2013-08-28 07:29:00
3:31 AM,66.2,66.2,100,29.87,0.5,ENE,2.3,-,N/A,Fog,Fog,60,2013-08-28 07:31:00
3:35 AM,64.4,64.4,100,29.86,0.8,East,1.2,-,N/A,,Clear,90,2013-08-28 07:35:00
3:38 AM,66.2,64.4,94,29.87,1.0,ENE,1.2,-,N/A,,Clear,60,2013-08-28 07:38:00
3:40 AM,66.2,66.2,100,29.87,1.0,Calm,Calm,-,N/A,,Clear,0,2013-08-28 07:40:00
3:46 AM,66.2,66.2,100,29.86,1.0,Calm,Calm,-,N/A,,Clear,0,2013-08-28 07:46:00
3:48 AM,66.2,66.2,100,29.86,0.8,Calm,Calm,-,N/A,,Clear,0,2013-08-28 07:48:00
3:49 AM,66.2,66.2,100,29.86,1.0,Calm,Calm,-,N/A,,Clear,0,2013-08-28 07:49:00
3:50 AM,66.2,66.2,100,29.86,1.0,NNE,1.2,-,N/A,,Mist,20,2013-08-28 07:50:00
3:51 AM,66.2,66.2,100,29.87,1.2,NNE,1.2,-,N/A,,Partly Cloudy,30,2013-08-28 07:51:00
3:52 AM,66.2,64.4,94,29.87,1.2,NNE,2.3,-,N/A,,Partly Cloudy,30,2013-08-28 07:52:00
3:53 AM,64.4,64.4,100,29.87,1.5,NNE,2.3,-,N/A,,Partly Cloudy,30,2013-08-28 07:53:00
3:54 AM,64.4,64.4,100,29.86,1.8,NNE,2.3,-,N/A,,Scattered Clouds,30,2013-08-28 07:54:00
3:55 AM,64.4,64.4,100,29.86,2.5,NNE,2.3,-,N/A,,Scattered Clouds,30,2013-08-28 07:55:00
3:56 AM,64.4,64.4,100,29.87,4.0,NE,3.5,-,N/A,,Scattered Clouds,40,2013-08-28 07:56:00
3:58 AM,64.4,64.4,100,29.88,4.0,NE,3.5,-,N/A,,Scattered Clouds,40,2013-08-28 07:58:00
3:59 AM,64.4,64.4,100,29.86,2.5,NE,3.5,-,N/A,,Scattered Clouds,40,2013-08-28 07:59:00
4:00 AM,64.4,64.4,100,29.86,1.5,NE,3.5,-,N/A,,Mostly Cloudy,40,2013-08-28 08:00:00
4:01 AM,64.4,64.4,100,29.86,1.0,NE,3.5,-,N/A,,Mist,40,2013-08-28 08:01:00
4:02 AM,64.4,64.4,100,29.86,0.8,NE,3.5,-,N/A,,Mist,40,2013-08-28 08:02:00
4:03 AM,64.4,64.4,100,29.86,0.8,NE,3.5,-,N/A,,Mist,50,2013-08-28 08:03:00
4:04 AM,64.4,64.4,100,29.86,0.5,NE,3.5,-,N/A,Fog,Fog,50,2013-08-28 08:04:00
4:05 AM,64.4,64.4,100,29.86,0.5,NE,3.5,-,N/A,Fog,Fog,50,2013-08-28 08:05:00
4:11 AM,66.2,66.2,100,29.86,0.8,ENE,2.3,-,N/A,,Mostly Cloudy,70,2013-08-28 08:11:00
4:12 AM,66.2,66.2,100,29.86,0.8,ENE,2.3,-,N/A,,Mostly Cloudy,70,2013-08-28 08:12:00
4:13 AM,66.2,66.2,100,29.86,1.0,ENE,2.3,-,N/A,,Mostly Cloudy,70,2013-08-28 08:13:00
4:14 AM,66.2,66.2,100,29.86,1.2,ENE,2.3,-,N/A,,Mostly Cloudy,60,2013-08-28 08:14:00
4:15 AM,66.2,66.2,100,29.87,1.5,ENE,2.3,-,N/A,,Overcast,60,2013-08-28 08:15:00
4:16 AM,66.2,66.2,100,29.87,1.8,ENE,2.3,-,N/A,,Overcast,60,2013-08-28 08:16:00
4:17 AM,66.2,66.2,100,29.87,2.0,ENE,2.3,-,N/A,,Overcast,60,2013-08-28 08:17:00
4:19 AM,66.2,66.2,100,29.87,2.5,NE,1.2,-,N/A,,Overcast,40,2013-08-28 08:19:00
4:21 AM,66.2,66.2,100,29.87,3.0,North,2.3,-,N/A,,Overcast,10,2013-08-28 08:21:00
4:37 AM,66.2,66.2,100,29.86,2.5,NE,2.3,-,N/A,,Overcast,50,2013-08-28 08:37:00
4:38 AM,66.2,66.2,100,29.86,1.8,NE,2.3,-,N/A,,Overcast,40,2013-08-28 08:38:00
4:39 AM,66.2,66.2,100,29.86,1.2,NNE,3.5,-,N/A,,Overcast,30,2013-08-28 08:39:00
4:40 AM,66.2,66.2,100,29.86,1.0,NNE,2.3,-,N/A,,Mist,30,2013-08-28 08:40:00
4:41 AM,66.2,66.2,100,29.86,0.8,NNE,2.3,-,N/A,,Mist,30,2013-08-28 08:41:00
4:42 AM,66.2,66.2,100,29.86,0.8,NNE,2.3,-,N/A,,Mist,30,2013-08-28 08:42:00
4:43 AM,66.2,66.2,100,29.86,0.8,NNE,2.3,-,N/A,,Mist,20,2013-08-28 08:43:00
4:44 AM,66.2,66.2,100,29.86,0.5,NNE,2.3,-,N/A,Fog,Fog,20,2013-08-28 08:44:00
4:47 AM,66.2,66.2,100,29.86,0.5,NNE,2.3,-,N/A,Fog,Fog,30,2013-08-28 08:47:00
4:52 AM,66.2,66.2,100,29.86,0.5,NNE,2.3,-,N/A,Fog,Fog,20,2013-08-28 08:52:00
4:53 AM,66.2,66.2,100,29.86,0.2,NNE,2.3,-,N/A,Fog,Fog,20,2013-08-28 08:53:00
4:54 AM,66.2,66.2,100,29.86,0.2,North,1.2,-,N/A,Fog,Fog,10,2013-08-28 08:54:00
4:55 AM,66.2,66.2,100,29.86,0.2,Calm,Calm,-,N/A,Fog,Fog,0,2013-08-28 08:55:00
4:58 AM,67.1,66.7,99,29.88,0.2,NNE,1.2,-,N/A,Fog,Fog,20,2013-08-28 08:58:00
5:05 AM,66.2,66.2,100,29.86,0.2,Calm,Calm,-,N/A,Fog,Fog,0,2013-08-28 09:05:00
5:10 AM,66.2,66.2,100,29.87,0.2,North,-9999.0,-,N/A,Fog,Fog,0,2013-08-28 09:10:00
5:11 AM,66.2,66.2,100,29.87,0.2,Calm,Calm,-,N/A,Fog,Fog,0,2013-08-28 09:11:00
5:17 AM,68.0,66.2,94,29.87,0.5,NNE,2.3,-,N/A,Fog,Fog,20,2013-08-28 09:17:00
5:31 AM,68.0,68.0,100,29.87,0.5,North,1.2,-,N/A,Fog,Fog,350,2013-08-28 09:31:00
5:37 AM,68.0,68.0,100,29.87,0.5,NW,1.2,-,N/A,Fog,Fog,320,2013-08-28 09:37:00
5:43 AM,68.0,68.0,100,29.88,0.5,NW,1.2,-,N/A,Fog,Fog,310,2013-08-28 09:43:00
5:58 AM,68.0,67.6,99,29.90,0.5,Calm,Calm,-,N/A,Fog,Fog,0,2013-08-28 09:58:00
6:00 AM,68.0,68.0,100,29.88,0.5,Calm,Calm,-,N/A,Fog,Fog,0,2013-08-28 10:00:00
6:02 AM,68.0,68.0,100,29.88,0.5,Calm,Calm,-,N/A,Fog,Fog,0,2013-08-28 10:02:00
6:12 AM,68.0,68.0,100,29.88,0.2,Calm,Calm,-,N/A,Fog,Fog,0,2013-08-28 10:12:00
6:18 AM,68.0,68.0,100,29.89,0.2,Calm,Calm,-,N/A,Fog,Fog,0,2013-08-28 10:18:00
6:22 AM,68.0,68.0,100,29.89,0.5,NW,1.2,-,N/A,Fog,Fog,320,2013-08-28 10:22:00
6:28 AM,68.0,68.0,100,29.89,0.2,Calm,Calm,-,N/A,Fog,Fog,0,2013-08-28 10:28:00
6:30 AM,68.0,68.0,100,29.89,0.2,NW,2.3,-,N/A,Fog,Fog,320,2013-08-28 10:30:00
6:32 AM,68.0,68.0,100,29.89,0.2,NW,2.3,-,N/A,Fog,Fog,320,2013-08-28 10:32:00
6:43 AM,68.0,68.0,100,29.89,0.2,NNW,2.3,-,N/A,Fog,Fog,340,2013-08-28 10:43:00
6:50 AM,68.0,68.0,100,29.89,0.2,NNW,1.2,-,N/A,Fog,Fog,340,2013-08-28 10:50:00
6:58 AM,68.0,68.0,100,29.91,0.2,North,2.3,-,N/A,Fog,Fog,350,2013-08-28 10:58:00
7:01 AM,68.0,68.0,100,29.90,0.2,North,1.2,-,N/A,Fog,Fog,350,2013-08-28 11:01:00
7:07 AM,68.0,68.0,100,29.90,0.2,North,2.3,-,N/A,Fog,Fog,360,2013-08-28 11:07:00
7:14 AM,68.0,68.0,100,29.90,0.2,North,2.3,-,N/A,Fog,Fog,10,2013-08-28 11:14:00
7:37 AM,68.0,68.0,100,29.90,0.2,NNE,1.2,-,N/A,Fog,Fog,30,2013-08-28 11:37:00
7:53 AM,68.0,68.0,100,29.90,0.2,North,1.2,-,N/A,Fog,Fog,10,2013-08-28 11:53:00
7:55 AM,68.0,68.0,100,29.90,0.2,Calm,Calm,-,N/A,Fog,Fog,0,2013-08-28 11:55:00
7:56 AM,68.0,68.0,100,29.90,0.2,Calm,Calm,-,N/A,Fog,Fog,0,2013-08-28 11:56:00
7:58 AM,68.0,68.0,100,29.92,0.2,Calm,Calm,-,N/A,Fog,Fog,0,2013-08-28 11:58:00
8:11 AM,69.8,68.0,94,29.90,0.2,NNW,1.2,-,N/A,Fog,Fog,330,2013-08-28 12:11:00
8:14 AM,69.8,68.0,94,29.90,0.2,Calm,Calm,-,N/A,Fog,Fog,0,2013-08-28 12:14:00
8:17 AM,69.8,68.0,94,29.90,0.5,Calm,Calm,-,N/A,Fog,Fog,0,2013-08-28 12:17:00
8:19 AM,69.8,68.0,94,29.90,0.5,Variable,1.2,-,N/A,Fog,Fog,0,2013-08-28 12:19:00
8:24 AM,69.8,69.8,100,29.90,0.8,Calm,Calm,-,N/A,,Mist,0,2013-08-28 12:24:00
8:25 AM,69.8,69.8,100,29.90,0.8,Calm,Calm,-,N/A,,Mist,0,2013-08-28 12:25:00
8:26 AM,69.8,69.8,100,29.90,1.0,Calm,Calm,-,N/A,,Mist,0,2013-08-28 12:26:00
8:28 AM,69.8,69.8,100,29.90,1.2,Calm,Calm,-,N/A,,Overcast,0,2013-08-28 12:28:00
8:36 AM,69.8,68.0,94,29.90,2.0,Calm,Calm,-,N/A,,Mostly Cloudy,0,2013-08-28 12:36:00
8:41 AM,69.8,68.0,94,29.90,2.5,NNW,1.2,-,N/A,,Mostly Cloudy,340,2013-08-28 12:41:00
8:47 AM,69.8,69.8,100,29.90,7.0,NNW,1.2,-,N/A,,Overcast,340,2013-08-28 12:47:00
8:53 AM,69.8,69.8,100,29.90,10.0,NNW,1.2,-,N/A,,Overcast,330,2013-08-28 12:53:00
8:54 AM,69.8,69.8,100,29.90,10.0,NNW,2.3,-,N/A,,Light Drizzle,330,2013-08-28 12:54:00
8:58 AM,69.4,69.4,100,29.92,10.0,North,1.2,-,0.00,,Light Drizzle,360,2013-08-28 12:58:00
9:02 AM,69.8,69.8,100,29.90,10.0,Calm,Calm,-,N/A,,Overcast,0,2013-08-28 13:02:00
9:08 AM,69.8,69.8,100,29.90,7.0,Calm,Calm,-,N/A,,Overcast,0,2013-08-28 13:08:00
9:58 AM,71.6,71.6,100,29.92,7.0,North,2.3,-,N/A,,Scattered Clouds,10,2013-08-28 13:58:00
10:58 AM,75.7,75.0,98,29.91,10.0,Variable,4.6,-,N/A,,Scattered Clouds,0,2013-08-28 14:58:00
11:58 AM,81.0,71.8,74,29.90,10.0,Variable,1.2,-,N/A,,Scattered Clouds,0,2013-08-28 15:58:00
12:58 PM,84.0,70.9,64,29.88,10.0,Variable,1.2,-,N/A,,Scattered Clouds,0,2013-08-28 16:58:00
1:58 PM,85.3,70.9,62,29.86,10.0,SSE,4.6,-,N/A,,Scattered Clouds,150,2013-08-28 17:58:00
2:58 PM,86.0,68.7,56,29.86,10.0,SSE,10.4,-,N/A,,Scattered Clouds,160,2013-08-28 18:58:00
3:58 PM,85.6,67.6,55,29.86,10.0,SSE,9.2,-,N/A,,Scattered Clouds,150,2013-08-28 19:58:00
4:58 PM,86.0,68.7,56,29.86,10.0,South,10.4,-,N/A,,Mostly Cloudy,170,2013-08-28 20:58:00
5:38 PM,82.4,71.6,70,29.85,10.0,SSE,9.2,-,N/A,Thunderstorm,Mostly Cloudy,160,2013-08-28 21:38:00
5:58 PM,81.3,70.5,70,29.88,10.0,SSE,9.2,-,N/A,Thunderstorm,Mostly Cloudy,160,2013-08-28 21:58:00
6:26 PM,78.8,69.8,74,29.87,10.0,South,4.6,-,N/A,,Overcast,190,2013-08-28 22:26:00
6:58 PM,77.9,68.9,74,29.90,10.0,South,4.6,-,N/A,,Overcast,180,2013-08-28 22:58:00
7:58 PM,75.4,67.8,77,29.91,10.0,SSW,8.1,-,N/A,,Mostly Cloudy,210,2013-08-28 23:58:00
8:58 PM,74.3,67.5,79,29.92,10.0,ESE,2.3,-,N/A,,Scattered Clouds,120,2013-08-29 00:58:00
9:58 PM,72.5,70.2,92,29.94,10.0,ESE,2.3,-,N/A,,Partly Cloudy,110,2013-08-29 01:58:00
10:58 PM,71.1,70.9,99,29.95,10.0,WSW,1.2,-,N/A,,Mostly Cloudy,250,2013-08-29 02:58:00
11:58 PM,71.1,70.7,99,29.95,10.0,ENE,2.3,-,N/A,,Mostly Cloudy,70,2013-08-29 03:58:00